Starlink 35428

operational
NORAD ID: 66115 Int'l Des: 2025-237 Owner: SPXS Country: US Constellation: starlink
LEOCIRCULAR

About Starlink 35428

Description loading...

Live Position

Loading 3D Globe...

Upcoming Passes

Altitude History

Altitude vs Time

uPlot chart will show altitude changes over time

Two-Line Element Set

1 66115C 25237B 25298.72340278 -.01132800 00000+0 -20158-2 0 2983
2 66115 53.1553 319.2629 0001000 67.7197 124.2494 16.02237678 12
Epoch: Oct 25, 2025 • Age: 145 hours

Current Status

Altitude 297.7 km
Velocity 7.74 km/s
Sub-Earth Point 50.15°N, 52.04°W
Launch Date Oct 22, 2025
Age 9 days
Type internet

Technical Details

Classification Payload
Mass 575.00 kg
Dry Mass 530.00 kg
Total Mass 575.00 kg
Length 0.30 m
Diameter 4.10 m
Span 29.00 m
Shape Box + pan
Manufacturer SPXS
Bus Type Starlink V2MO
Phase Status In Orbit
Owner/State SPXS/US

Large Constellations

Loading constellations...